LGV327 SEGU-SKCL

Flight info

Callsign LGV327
Flight time 1h 0m
Altitude 37000
Route REGAP2 PAMIS UP533 BOKAN PPN PPN3C
Aircraft B737/M-SDE2E3FGHIRWXY/LB1

Departure

Time 2026-05-07 01:54
Airport José Joaquín de Olmedo International Airport (SEGU)

Arrival

Time 2026-05-07 02:54
Airport Alfonso Bonilla Aragon International Airport (SKCL)
Time Latitude Longitude Altitude Speed Heading
2026-05-07 01:26 -2.15132 -79.88470 28 ft 0 kts 300°
2026-05-07 01:40 -2.15137 -79.88462 28 ft 4 kts 300°
2026-05-07 01:40 -2.15150 -79.88439 28 ft 4 kts 300°
2026-05-07 01:40 -2.15162 -79.88417 28 ft 2 kts 295°
2026-05-07 01:41 -2.15171 -79.88396 28 ft 4 kts 287°
2026-05-07 01:41 -2.15180 -79.88370 28 ft 3 kts 298°
2026-05-07 01:41 -2.15181 -79.88367 28 ft 0 kts 299°
2026-05-07 01:46 -2.15174 -79.88380 28 ft 5 kts 299°
2026-05-07 01:46 -2.15146 -79.88395 28 ft 5 kts 358°
2026-05-07 01:47 -2.15102 -79.88378 28 ft 8 kts 29°
2026-05-07 01:47 -2.15040 -79.88343 28 ft 12 kts 30°
2026-05-07 01:47 -2.14959 -79.88297 28 ft 15 kts 30°
2026-05-07 01:47 -2.14864 -79.88242 28 ft 16 kts 30°
2026-05-07 01:48 -2.14786 -79.88191 28 ft 10 kts 50°
2026-05-07 01:48 -2.14790 -79.88149 28 ft 6 kts 122°
2026-05-07 01:48 -2.14812 -79.88112 28 ft 6 kts 121°
2026-05-07 01:48 -2.14835 -79.88074 28 ft 7 kts 121°
2026-05-07 01:49 -2.14838 -79.88043 28 ft 4 kts 71°
2026-05-07 01:49 -2.14812 -79.88020 28 ft 6 kts 32°
2026-05-07 01:49 -2.14770 -79.87995 28 ft 8 kts 30°
2026-05-07 01:49 -2.14719 -79.87965 28 ft 9 kts 30°
2026-05-07 01:50 -2.14682 -79.87942 28 ft 10 kts 40°
2026-05-07 01:50 -2.14651 -79.87881 28 ft 10 kts 72°
2026-05-07 01:50 -2.14638 -79.87811 27 ft 10 kts 83°
2026-05-07 01:50 -2.14670 -79.87757 27 ft 10 kts 171°
2026-05-07 01:51 -2.14733 -79.87786 26 ft 10 kts 209°
2026-05-07 01:51 -2.14747 -79.87794 26 ft 0 kts 210°
2026-05-07 01:53 -2.14795 -79.87821 26 ft 36 kts 210°
2026-05-07 01:53 -2.15253 -79.88084 27 ft 113 kts 210°
2026-05-07 01:54 -2.16068 -79.88553 342 ft 142 kts 210°
2026-05-07 01:54 -2.16966 -79.89062 936 ft 158 kts 209°
2026-05-07 01:54 -2.17955 -79.89640 1528 ft 172 kts 212°
2026-05-07 01:54 -2.19005 -79.90022 2540 ft 159 kts 174°
2026-05-07 01:55 -2.19939 -79.89481 3302 ft 164 kts 122°
2026-05-07 01:55 -2.20215 -79.88310 3767 ft 193 kts 85°
2026-05-07 01:55 -2.19715 -79.86959 4067 ft 224 kts 57°
2026-05-07 01:55 -2.19137 -79.85431 4409 ft 247 kts 86°
2026-05-07 01:56 -2.19429 -79.83668 4873 ft 270 kts 114°
2026-05-07 01:56 -2.20319 -79.81985 5731 ft 277 kts 120°
2026-05-07 01:56 -2.21307 -79.80315 6677 ft 281 kts 121°
2026-05-07 01:56 -2.22317 -79.78633 7686 ft 283 kts 121°
2026-05-07 01:57 -2.23329 -79.76944 8762 ft 284 kts 117°
2026-05-07 01:57 -2.23759 -79.75022 9755 ft 289 kts 85°
2026-05-07 01:57 -2.23117 -79.73110 10524 ft 303 kts 58°
2026-05-07 01:57 -2.21525 -79.71593 10744 ft 336 kts 30°
2026-05-07 01:58 -2.19308 -79.70594 11011 ft 362 kts 25°
2026-05-07 01:58 -2.16974 -79.69542 11593 ft 373 kts 26°
2026-05-07 01:58 -2.14613 -79.68439 12410 ft 376 kts 27°
2026-05-07 01:58 -2.12249 -79.67301 13248 ft 379 kts 27°
2026-05-07 01:59 -2.09869 -79.66131 14041 ft 383 kts 28°
2026-05-07 01:59 -2.07468 -79.64935 14711 ft 388 kts 28°
2026-05-07 01:59 -2.05041 -79.63717 15403 ft 392 kts 28°
2026-05-07 01:59 -2.02602 -79.62489 16189 ft 394 kts 28°
2026-05-07 02:00 -2.00134 -79.61244 17007 ft 400 kts 28°
2026-05-07 02:00 -1.97629 -79.59978 17806 ft 407 kts 28°
2026-05-07 02:00 -1.95085 -79.58692 18605 ft 413 kts 28°
2026-05-07 02:00 -1.92506 -79.57389 19410 ft 417 kts 28°
2026-05-07 02:01 -1.89905 -79.56076 20356 ft 420 kts 29°
2026-05-07 02:01 -1.87293 -79.54756 21235 ft 422 kts 29°
2026-05-07 02:01 -1.84653 -79.53423 21815 ft 427 kts 28°
2026-05-07 02:01 -1.81996 -79.52081 22265 ft 431 kts 28°
2026-05-07 02:02 -1.79308 -79.50723 22724 ft 434 kts 28°
2026-05-07 02:02 -1.76609 -79.49360 23200 ft 436 kts 28°
2026-05-07 02:02 -1.73887 -79.47986 23644 ft 439 kts 28°
2026-05-07 02:02 -1.71154 -79.46605 23998 ft 442 kts 28°
2026-05-07 02:03 -1.68400 -79.45215 24356 ft 444 kts 28°
2026-05-07 02:03 -1.65632 -79.43818 24714 ft 447 kts 28°
2026-05-07 02:03 -1.62847 -79.42411 25068 ft 450 kts 28°
2026-05-07 02:03 -1.60047 -79.40998 25430 ft 452 kts 28°
2026-05-07 02:04 -1.57237 -79.39579 25774 ft 454 kts 28°
2026-05-07 02:04 -1.54413 -79.38154 26095 ft 456 kts 28°
2026-05-07 02:04 -1.51579 -79.36723 26406 ft 458 kts 28°
2026-05-07 02:04 -1.48763 -79.35302 26708 ft 460 kts 28°
2026-05-07 02:05 -1.45901 -79.33857 26999 ft 462 kts 28°
2026-05-07 02:05 -1.43020 -79.32403 27300 ft 464 kts 28°
2026-05-07 02:05 -1.40138 -79.30948 27582 ft 466 kts 28°
2026-05-07 02:05 -1.37237 -79.29484 27868 ft 468 kts 28°
2026-05-07 02:06 -1.34325 -79.28014 28139 ft 470 kts 28°
2026-05-07 02:06 -1.31406 -79.26541 28408 ft 471 kts 28°
2026-05-07 02:06 -1.28482 -79.25065 28666 ft 472 kts 28°
2026-05-07 02:06 -1.25543 -79.23582 28915 ft 474 kts 28°
2026-05-07 02:07 -1.22593 -79.22093 29166 ft 475 kts 28°
2026-05-07 02:07 -1.16672 -79.19105 29623 ft 478 kts 28°
2026-05-07 02:07 -1.13695 -79.17603 29826 ft 480 kts 28°
2026-05-07 02:08 -1.10713 -79.16098 30041 ft 481 kts 28°
2026-05-07 02:08 -1.07729 -79.14593 30315 ft 480 kts 29°
2026-05-07 02:08 -1.04751 -79.13090 30602 ft 479 kts 29°
2026-05-07 02:08 -1.01777 -79.11589 30885 ft 479 kts 28°
2026-05-07 02:09 -0.98805 -79.10090 31131 ft 479 kts 28°
2026-05-07 02:09 -0.95828 -79.08588 31364 ft 480 kts 28°
2026-05-07 02:09 -0.92850 -79.07084 31617 ft 480 kts 28°
2026-05-07 02:09 -0.89871 -79.05581 31904 ft 480 kts 28°
2026-05-07 02:10 -0.86891 -79.04077 32212 ft 480 kts 28°
2026-05-07 02:10 -0.83913 -79.02574 32494 ft 480 kts 28°
2026-05-07 02:10 -0.80935 -79.01069 32825 ft 480 kts 28°
2026-05-07 02:10 -0.78034 -78.99412 33156 ft 479 kts 33°
2026-05-07 02:11 -0.75232 -78.97626 33507 ft 478 kts 34°
2026-05-07 02:11 -0.72459 -78.95790 33837 ft 478 kts 35°
2026-05-07 02:11 -0.70625 -78.94565 34058 ft 479 kts 35°
2026-05-07 02:11 -0.66916 -78.92096 34514 ft 479 kts 34°
2026-05-07 02:12 -0.64141 -78.90268 34863 ft 478 kts 34°
2026-05-07 02:12 -0.61363 -78.88451 35223 ft 477 kts 34°
2026-05-07 02:12 -0.58588 -78.86646 35556 ft 476 kts 34°
2026-05-07 02:12 -0.55808 -78.84844 35868 ft 476 kts 34°
2026-05-07 02:13 -0.53033 -78.83048 36186 ft 475 kts 34°
2026-05-07 02:13 -0.50264 -78.81253 36481 ft 475 kts 34°
2026-05-07 02:13 -0.48431 -78.80064 36661 ft 474 kts 34°
2026-05-07 02:13 -0.45664 -78.78268 36963 ft 474 kts 34°
2026-05-07 02:14 -0.42903 -78.76476 37268 ft 473 kts 34°
2026-05-07 02:14 -0.40142 -78.74670 37326 ft 477 kts 35°
2026-05-07 02:14 -0.33868 -78.70217 37322 ft 474 kts 37°
2026-05-07 02:15 -0.28523 -78.66323 37323 ft 471 kts 37°
2026-05-07 02:15 -0.23217 -78.62496 37352 ft 470 kts 36°
2026-05-07 02:16 -0.17908 -78.58697 37363 ft 469 kts 36°
2026-05-07 02:16 -0.12595 -78.54904 37371 ft 470 kts 36°
2026-05-07 02:17 -0.07309 -78.51130 37387 ft 471 kts 36°
2026-05-07 02:17 -0.01973 -78.47317 37373 ft 472 kts 36°
2026-05-07 02:18 0.03376 -78.43497 37380 ft 473 kts 36°
2026-05-07 02:18 0.08744 -78.39661 37365 ft 475 kts 36°
2026-05-07 02:19 0.14122 -78.35819 37350 ft 476 kts 36°
2026-05-07 02:19 0.19509 -78.31970 37335 ft 477 kts 36°
2026-05-07 02:20 0.24922 -78.28103 37303 ft 478 kts 36°
2026-05-07 02:20 0.30341 -78.24231 37308 ft 479 kts 36°
2026-05-07 02:21 0.35770 -78.20352 37306 ft 480 kts 36°
2026-05-07 02:21 0.41236 -78.16447 37307 ft 480 kts 37°
2026-05-07 02:22 0.46677 -78.12559 37301 ft 481 kts 37°
2026-05-07 02:22 0.51197 -78.09330 37300 ft 481 kts 37°
2026-05-07 02:23 0.57517 -78.04814 37296 ft 481 kts 37°
2026-05-07 02:23 0.62954 -78.00928 37286 ft 480 kts 37°
2026-05-07 02:24 0.67502 -77.97678 37294 ft 480 kts 37°
2026-05-07 02:24 0.73805 -77.93173 37349 ft 479 kts 37°
2026-05-07 02:25 0.79226 -77.89298 37387 ft 478 kts 37°
2026-05-07 02:25 0.84582 -77.85367 37437 ft 477 kts 39°
2026-05-07 02:26 0.89819 -77.81294 37459 ft 477 kts 39°
2026-05-07 02:26 0.95042 -77.77211 37470 ft 476 kts 39°
2026-05-07 02:27 1.00274 -77.73150 37454 ft 476 kts 39°
2026-05-07 02:27 1.05518 -77.69100 37415 ft 476 kts 39°
2026-05-07 02:28 1.10756 -77.65057 37358 ft 476 kts 39°
2026-05-07 02:28 1.15992 -77.61016 37287 ft 475 kts 39°
2026-05-07 02:29 1.21213 -77.56986 37220 ft 474 kts 39°
2026-05-07 02:29 1.26433 -77.52955 37214 ft 474 kts 39°
2026-05-07 02:30 1.31651 -77.48925 37219 ft 474 kts 39°
2026-05-07 02:30 1.36869 -77.44896 37223 ft 474 kts 39°
2026-05-07 02:31 1.42085 -77.40868 37223 ft 474 kts 39°
2026-05-07 02:31 1.47302 -77.36839 37235 ft 475 kts 39°
2026-05-07 02:32 1.52528 -77.32802 37215 ft 475 kts 39°
2026-05-07 02:32 1.57757 -77.28763 37197 ft 475 kts 39°
2026-05-07 02:33 1.62985 -77.24725 37178 ft 475 kts 39°
2026-05-07 02:33 1.68210 -77.20689 37140 ft 474 kts 39°
2026-05-07 02:34 1.73424 -77.16660 37096 ft 474 kts 39°
2026-05-07 02:34 1.78631 -77.12637 37095 ft 473 kts 39°
2026-05-07 02:35 1.83827 -77.08622 37082 ft 472 kts 39°
2026-05-07 02:35 1.88144 -77.05286 37082 ft 472 kts 39°
2026-05-07 02:36 1.93335 -77.01274 37074 ft 472 kts 38°
2026-05-07 02:36 1.98530 -76.97259 37085 ft 472 kts 39°
2026-05-07 02:37 2.03723 -76.93245 37075 ft 472 kts 39°
2026-05-07 02:37 2.08915 -76.89232 37079 ft 472 kts 39°
2026-05-07 02:38 2.14116 -76.85211 37079 ft 473 kts 39°
2026-05-07 02:38 2.19326 -76.81183 37096 ft 474 kts 39°
2026-05-07 02:39 2.24509 -76.77175 37131 ft 474 kts 39°
2026-05-07 02:39 2.29772 -76.73105 36871 ft 479 kts 39°
2026-05-07 02:40 2.32413 -76.71062 36242 ft 477 kts 39°
2026-05-07 02:40 2.35001 -76.69062 35314 ft 478 kts 39°
2026-05-07 02:40 2.37630 -76.67029 34432 ft 478 kts 39°
2026-05-07 02:40 2.40265 -76.64990 33320 ft 480 kts 39°
2026-05-07 02:41 2.42908 -76.62949 32233 ft 480 kts 38°
2026-05-07 02:41 2.45777 -76.61230 31088 ft 484 kts 24°
2026-05-07 02:41 2.49016 -76.60259 29878 ft 487 kts 15°
2026-05-07 02:41 2.52323 -76.59520 28540 ft 487 kts 14°
2026-05-07 02:42 2.55636 -76.58821 27264 ft 486 kts 13°
2026-05-07 02:42 2.58934 -76.58123 26034 ft 484 kts 14°
2026-05-07 02:42 2.62210 -76.57412 24895 ft 480 kts 14°
2026-05-07 02:42 2.65450 -76.56689 23898 ft 473 kts 14°
2026-05-07 02:43 2.68634 -76.55966 22824 ft 465 kts 14°
2026-05-07 02:43 2.71760 -76.55248 21794 ft 457 kts 15°
2026-05-07 02:43 2.74834 -76.54540 20775 ft 450 kts 15°
2026-05-07 02:43 2.77858 -76.53844 19769 ft 443 kts 15°
2026-05-07 02:44 2.80840 -76.53157 18783 ft 437 kts 15°
2026-05-07 02:44 2.83784 -76.52480 17770 ft 431 kts 15°
2026-05-07 02:44 2.86690 -76.51813 16755 ft 425 kts 15°
2026-05-07 02:44 2.89544 -76.51156 15785 ft 418 kts 15°
2026-05-07 02:45 2.92359 -76.50509 14845 ft 412 kts 15°
2026-05-07 02:45 2.95134 -76.49872 13901 ft 407 kts 15°
2026-05-07 02:45 2.97880 -76.49240 12874 ft 402 kts 15°
2026-05-07 02:45 3.00582 -76.48619 11907 ft 391 kts 15°
2026-05-07 02:46 3.03164 -76.48027 11402 ft 366 kts 14°
2026-05-07 02:46 3.05564 -76.47478 11246 ft 344 kts 14°
2026-05-07 02:46 3.07861 -76.46949 10822 ft 334 kts 14°
2026-05-07 02:46 3.10055 -76.46445 10482 ft 315 kts 14°
2026-05-07 02:47 3.12132 -76.45966 10187 ft 298 kts 14°
2026-05-07 02:47 3.14100 -76.45513 9897 ft 283 kts 14°
2026-05-07 02:47 3.15977 -76.45080 9604 ft 271 kts 14°
2026-05-07 02:47 3.17772 -76.44668 9333 ft 258 kts 14°
2026-05-07 02:48 3.19499 -76.44272 9124 ft 252 kts 14°
2026-05-07 02:48 3.21203 -76.43896 8840 ft 250 kts 12°
2026-05-07 02:48 3.22915 -76.43591 8557 ft 249 kts 11°
2026-05-07 02:48 3.24622 -76.43303 8272 ft 248 kts 11°
2026-05-07 02:49 3.26316 -76.43018 7990 ft 246 kts 10°
2026-05-07 02:49 3.27999 -76.42731 7714 ft 245 kts 10°
2026-05-07 02:49 3.29679 -76.42443 7414 ft 244 kts 10°
2026-05-07 02:49 3.31349 -76.42154 7138 ft 243 kts 10°
2026-05-07 02:50 3.33014 -76.41873 6874 ft 241 kts
2026-05-07 02:50 3.34665 -76.41598 6598 ft 240 kts
2026-05-07 02:50 3.36311 -76.41315 6316 ft 240 kts
2026-05-07 02:50 3.37946 -76.41029 6021 ft 236 kts
2026-05-07 02:51 3.39543 -76.40749 5716 ft 229 kts
2026-05-07 02:51 3.41083 -76.40480 5419 ft 220 kts
2026-05-07 02:51 3.42544 -76.40224 5138 ft 212 kts
2026-05-07 02:51 3.43985 -76.39973 4874 ft 204 kts
2026-05-07 02:52 3.45329 -76.39738 4616 ft 192 kts
2026-05-07 02:52 3.46592 -76.39516 4384 ft 177 kts
2026-05-07 02:52 3.47730 -76.39318 4196 ft 156 kts
2026-05-07 02:52 3.48726 -76.39144 3986 ft 137 kts
2026-05-07 02:53 3.49647 -76.38984 3849 ft 135 kts
2026-05-07 02:53 3.50588 -76.38827 3698 ft 140 kts
2026-05-07 02:53 3.51541 -76.38660 3478 ft 136 kts 11°
2026-05-07 02:53 3.52457 -76.38492 3302 ft 133 kts 12°
2026-05-07 02:54 3.53357 -76.38331 3162 ft 124 kts 11°
2026-05-07 02:54 3.54107 -76.38202 3168 ft 92 kts 10°
2026-05-07 02:54 3.54623 -76.38113 3166 ft 58 kts
2026-05-07 02:54 3.54901 -76.38065 3161 ft 29 kts
2026-05-07 02:55 3.55048 -76.38040 3164 ft 12 kts
2026-05-07 02:55 3.55099 -76.38086 3165 ft 11 kts 283°
2026-05-07 02:55 3.55113 -76.38153 3165 ft 4 kts 280°
2026-05-07 02:55 3.55113 -76.38183 3166 ft 5 kts 253°
2026-05-07 02:56 3.55058 -76.38203 3166 ft 14 kts 191°
2026-05-07 02:56 3.54946 -76.38222 3165 ft 18 kts 189°
2026-05-07 02:56 3.54818 -76.38244 3167 ft 19 kts 189°
2026-05-07 02:56 3.54681 -76.38268 3164 ft 21 kts 189°
2026-05-07 02:57 3.54536 -76.38293 3165 ft 21 kts 189°
2026-05-07 02:57 3.54392 -76.38318 3164 ft 21 kts 189°
2026-05-07 02:57 3.54252 -76.38344 3166 ft 20 kts 190°
2026-05-07 02:57 3.54113 -76.38369 3164 ft 21 kts 198°
2026-05-07 02:58 3.53995 -76.38454 3163 ft 22 kts 219°
2026-05-07 02:58 3.53877 -76.38552 3162 ft 21 kts 219°
2026-05-07 02:58 3.53876 -76.38617 3162 ft 9 kts 354°
2026-05-07 02:58 3.53948 -76.38606 3160 ft 13 kts
2026-05-07 02:59 3.53997 -76.38604 3160 ft 1 kts 321°
2026-05-07 02:59 3.54001 -76.38620 3161 ft 4 kts 284°
2026-05-07 02:59 3.54009 -76.38660 3159 ft 7 kts 279°
2026-05-07 02:59 3.54013 -76.38679 3160 ft 0 kts 279°